Regional Weather Roundup
Issued by NWS

Home | Current Version | Previous Version | Text Only | Print | Product List | Glossary Off
Versions: 1 2 3 4 5 6 7 8 9 10 11 12 13 14 15 16 17 18 19 20 21 22 23 24 25 26 27 28 29 30 31 32 33 34 35 36 37 38 39 40 41 42 43 44 45 46 47 48 49 50

000
ASUS45 KSLC 301910
RWRUT

UTAH REGIONAL WEATHER ROUNDUP
NATIONAL WEATHER SERVICE SALT LAKE CITY UT
100 PM MDT SAT APR 30 2016

UTZ001>011-023>025-302000-

NORTHERN UTAH

CITY           SKY/WX    TMP DP  RH WIND       PRES   REMARKS
BRIGHAM CITY   PTSUNNY   55  27  33 N6        29.98F
HILL AFB       PTSUNNY   56  32  41 E9        29.96S
LOGAN          PTSUNNY   55  32  41 E8G20     29.99S
OGDEN          PTSUNNY   56  30  37 NE14G22   29.95F
PROVO AIRPORT  PTSUNNY   55  34  44 W12       29.92F
SALT LAKE CITY PTSUNNY   61  32  33 N16G23    29.92F
VERNAL         CLOUDY    49  30  48 NE16G25   29.98F
WENDOVER       MOSUNNY   55  39  54 NE14      29.98F
HEBER CITY     CLOUDY    50  30  46 N10       29.93F

$$

UTZ012>022-026-027-302000-

SOUTHERN/CENTRAL UTAH

CITY           SKY/WX    TMP DP  RH WIND       PRES   REMARKS
BLANDING       CLOUDY    48  35  59 N15       29.95S
BRYCE CANYON   CLOUDY    38  35  89 SE9       29.92S WCI  31
CEDAR CITY     LGT RAIN  47  40  76 NE7       29.85R
DELTA          PTSUNNY   55  32  41 NE14      29.90F
HANKSVILLE     MOSUNNY   57  36  44 NE8       29.91F
MILFORD        CLOUDY    56  38  50 N23G30    29.87F
MOAB/CYNLANDS  CLOUDY    57  30  35 CALM      29.86F
PRICE          CLOUDY    51  27  39 NE17G23   29.92S
ST GEORGE      MOCLDY    59  45  58 NE15      29.83F

$$

REGIONAL REPORTS     COLORADO/ARIZONA

CITY           SKY/WX    TMP DP  RH WIND       PRES   REMARKS
CRAIG, CO      CLOUDY    43  32  65 NW6       29.93S
GRAND JUNCTION CLOUDY    51  32  48 NW9       29.89F
RIFLE          CLOUDY    49  31  49 W9        29.90F
MONTROSE       MOSUNNY   52  27  38 N8        29.89F
CORTEZ         MOSUNNY   54  29  38 S6        29.85F
PAGE, AZ       CLOUDY    52  45  77 N9        29.87S
GRAND CANYON   CLOUDY    45  39  79 NE9       29.87F
KINGMAN        LGT RAIN  47  44  90 W7        29.77F FOG
FLAGSTAFF      PTSUNNY   47  34  60 SW12      29.85F

$$

REGIONAL REPORTS    NEVADA/IDAHO/WYOMING

CITY           SKY/WX    TMP DP  RH WIND       PRES   REMARKS
LAS VEGAS, NV  CLOUDY    53  53 100 VRB5      29.75S
ELY            CLOUDY    47  38  71 N20       29.96S
ELKO           PTSUNNY   53  35  50 NE15      30.02S
POCATELLO, ID  CLOUDY    51  42  71 NW7       30.04S
BURLEY         CLOUDY    49  40  71 SW6       30.06S
EVANSTON, WY   CLOUDY    41  26  55 E14G25    30.02F
ROCK SPRINGS   CLOUDY    38  31  76 NE23G36   30.04S WCI  27
KEMMERER         N/A     39  30  70 E6        30.04F WCI  35

$$



USA.gov is the U.S. government's official web portal to all federal, state and local government web resources and services.